This is the latest recevied weather packets stored in our database for station/object SR9SMR. If no packets are shown the sender has not sent any weather packets the latest 10 day(s).
| Time | Temp. | Humidity | Pressure | Rain* | Wind** | Luminosity | Snow |
|---|---|---|---|---|---|---|---|
| 1787720524 | 11.67° C | 100% | 909 hPa | - | - | - | - |
| 1787720395 | 11.67° C | 100% | 907.4 hPa | - | - | - | - |
| 1787720267 | 11.67° C | 100% | 903.8 hPa | - | - | - | - |
| 1787720204 | 11.67° C | 100% | 908.7 hPa | - | - | - | - |
| 1787720137 | 11.67° C | 100% | 901.6 hPa | - | - | - | - |
| 1787720009 | 11.67° C | 100% | 905.3 hPa | - | - | - | - |
| 1787719880 | 12.22° C | 100% | 902.4 hPa | - | - | - | - |
| 1787719762 | 12.22° C | 100% | 904.5 hPa | - | - | - | - |
| 1787719634 | 12.22° C | 100% | 905.5 hPa | - | - | - | - |
| 1787719571 | 12.22° C | 100% | 902.6 hPa | - | - | - | - |
| 1787719504 | 12.22° C | 100% | 902.9 hPa | - | - | - | - |
| 1787719376 | 12.22° C | 100% | 903.5 hPa | - | - | - | - |
| 1787719247 | 10.56° C | 100% | 902.8 hPa | - | - | - | - |
| 1787719130 | 10.56° C | 100% | 904.5 hPa | - | - | - | - |
| 1787719118 | 10.56° C | 100% | 902.4 hPa | - | - | - | - |
| 1787718990 | 11.11° C | 100% | 902.6 hPa | - | - | - | - |
| 1787718929 | 11.67° C | 100% | 903.5 hPa | - | - | - | - |
| 1787718859 | 12.22° C | 100% | 905.6 hPa | - | - | - | - |
| 1787718741 | 12.22° C | 100% | 903.2 hPa | - | - | - | - |
| 1787718612 | 12.22° C | 100% | 901.9 hPa | - | - | - | - |
| 1787718483 | 12.22° C | 100% | 906.9 hPa | - | - | - | - |
| 1787718366 | 12.78° C | 100% | 902.5 hPa | - | - | - | - |
| 1787718355 | 12.78° C | 100% | 903.7 hPa | - | - | - | - |
| 1787718292 | 12.78° C | 100% | 903.7 hPa | - | - | - | - |
| 1787718225 | 12.78° C | 100% | 907.2 hPa | - | - | - | - |
* Rain since midnight (hover to see other rain measurements)
** Current wind speed in m/s (hover to see current wind gust speed)